Location: Colorado Springs
(38.8340°N, 104.8210°W)
Time: 11:21:37
(UTC-06:00)

OTV 5 (USA 277) - Pass Details

Date: 14 October 2017
Orbit: 404 x 417 km, 43.0° (Epoch: 07 September)

Event Time Altitude Azimuth Distance (km) Brightness Sun altitude
Rises 19:04:21 0° 266° (W) 2,350 ? -9.1°
Reaches altitude 10° 19:06:31 10° 272° (W) 1,489 ? -9.5°
Maximum altitude 19:09:47 48° 348° (NNW) 551 ? -10.1°
Enters shadow 19:12:30 14° 62° (ENE) 1,272 ? -10.6°
